Weather History for Hickory, NC

Change the Weather History Date:

Saturday, December 21, 2013

  Actual Average Record
Temperature  
Mean Temperature 55 °F -  
Max Temperature 64 °F 47 °F 69 °F (1956)
Min Temperature 46 °F 31 °F 12 °F (1981)
Degree Days  
Heating Degree Days 10    
Growing Degree Days 5 (Base 50)    
Moisture  
Dew Point 52 °F    
Average Humidity 82    
Maximum Humidity 90    
Minimum Humidity 74    
Precipitation  
Precipitation 0.00 in - - ()
Sea Level Pressure  
Sea Level Pressure 30.04 in    
Wind  
Wind Speed 3 mph (SSW)    
Max Wind Speed 16 mph    
Max Gust Speed 22 mph    
Visibility 10 miles    
Events Rain    
Averages and records for this station are not official NWS values.
T = Trace of Precipitation, MM = Missing Value Source: NWS Daily Summary

Daily Weather History Graph

Daily Weather History Graph

Search for Another Location

Airport:

Trip Planner

Search our weather history database for the weather conditions in past years. The results will help you decide how hot, cold, wet, or windy it might be!

Date:

Astronomy

Dec. 21, 2013 Rise Set
Actual Time 7:31 AM EST 5:15 PM EST
Civil Twilight 7:03 AM EST 5:44 PM EST
Nautical Twilight 6:31 AM EST 6:16 PM EST
Astronomical Twilight 6:00 AM EST 6:47 PM EST
Moon 9:23 PM EST (12/21) 10:03 AM EST (12/21)
Length of Visible Light 10h 41m
Length of Day
9h 44m
Waning Gibbous, 84% of the Moon is Illuminated
Dec 21
Waning Gibbous
Dec 25
Last Quarter
Jan 1
New
Jan 7
First Quarter
Jan 15
Full

Hourly Weather History & Observations

Time (EST) Temp. Dew Point Humidity Pressure Visibility Wind Dir Wind Speed Gust Speed Precip Events Conditions
12:53 AM 48.0 °F 44.1 °F 86% 30.09 in 10.0 mi Calm Calm - N/A   Clear
1:53 AM 48.9 °F 44.1 °F 83% 30.08 in 10.0 mi Calm Calm - N/A   Scattered Clouds
2:53 AM 48.9 °F 44.1 °F 83% 30.07 in 10.0 mi Calm Calm - N/A   Clear
3:53 AM 46.0 °F 42.1 °F 86% 30.08 in 10.0 mi Calm Calm - N/A   Mostly Cloudy
4:53 AM 54.0 °F 48.0 °F 80% 30.06 in 10.0 mi South 6.9 mph - N/A   Overcast
5:53 AM 57.0 °F 48.9 °F 74% 30.07 in 10.0 mi South 9.2 mph - N/A   Overcast
6:53 AM 55.9 °F 48.0 °F 75% 30.06 in 10.0 mi South 8.1 mph - N/A   Overcast
7:02 AM 55.4 °F 48.2 °F 77% 30.10 in 10.0 mi South 6.9 mph - N/A   Overcast
7:53 AM 55.0 °F 48.0 °F 77% 30.07 in 10.0 mi South 6.9 mph - N/A   Scattered Clouds
8:53 AM 55.0 °F 48.9 °F 80% 30.08 in 10.0 mi SSW 4.6 mph - N/A   Scattered Clouds
9:19 AM 55.4 °F 48.2 °F 77% 30.12 in 10.0 mi Variable 4.6 mph - N/A   Mostly Cloudy
9:53 AM 57.0 °F 50.0 °F 77% 30.08 in 10.0 mi South 9.2 mph - N/A   Mostly Cloudy
10:53 AM 59.0 °F 51.1 °F 75% 30.08 in 10.0 mi Calm Calm - N/A   Overcast
11:53 AM 59.0 °F 51.1 °F 75% 30.06 in 10.0 mi Variable 3.5 mph - N/A   Overcast
12:53 PM 61.0 °F 54.0 °F 78% 30.02 in 10.0 mi SSW 4.6 mph - 0.00 in   Overcast
1:07 PM 60.8 °F 53.6 °F 77% 30.06 in 10.0 mi South 5.8 mph - N/A   Overcast
1:53 PM 60.1 °F 54.0 °F 80% 30.01 in 10.0 mi South 4.6 mph - N/A   Overcast
2:53 PM 60.1 °F 55.0 °F 83% 30.00 in 6.0 mi South 4.6 mph - 0.00 in Rain Light Rain
3:07 PM 60.8 °F 55.4 °F 82% 30.03 in 6.0 mi Calm Calm - 0.00 in Rain Light Rain
3:53 PM 60.1 °F 55.9 °F 86% 30.00 in 10.0 mi South 4.6 mph - 0.00 in   Overcast
4:45 PM 60.8 °F 57.2 °F 88% 30.04 in 10.0 mi WSW 3.5 mph - N/A   Overcast
4:53 PM 60.1 °F 57.0 °F 90% 30.01 in 10.0 mi WSW 4.6 mph - N/A   Overcast
5:38 PM 60.8 °F 55.4 °F 82% 30.04 in 10.0 mi Calm Calm - N/A   Overcast
5:53 PM 59.0 °F 55.9 °F 90% 30.00 in 10.0 mi Calm Calm - N/A   Overcast
6:53 PM 59.0 °F 55.9 °F 90% 29.99 in 9.0 mi Calm Calm - N/A   Overcast
7:53 PM 61.0 °F 57.0 °F 87% 29.98 in 10.0 mi Calm Calm - N/A   Overcast
8:53 PM 64.0 °F 57.9 °F 80% 29.98 in 10.0 mi Calm Calm - N/A   Overcast
9:53 PM 63.0 °F 57.9 °F 84% 29.97 in 10.0 mi Calm Calm - N/A   Overcast
10:53 PM 64.0 °F 59.0 °F 84% 29.95 in 10.0 mi South 9.2 mph 17.3 mph N/A   Mostly Cloudy
11:53 PM 64.9 °F 60.1 °F 84% 29.95 in 10.0 mi SSW 16.1 mph 21.9 mph 0.00 in   Mostly Cloudy